{"data":{"norad_id":63256,"intl_designator":"2025-052AY","name":"FIRESAT 0 (MUSAT-4)","alt_names":[],"object_type":"PAYLOAD","status":"ACTIVE","operator":null,"country":"US","launch_date":"2025-03-15","launch_site_code":"AFWTR","launch_vehicle":null,"mission":null,"orbit_class":"UNKNOWN","rcs_meters":null,"size_class":null,"mass_kg":null,"dimensions":null,"purposes":[],"wikipedia_slug":null,"has_3d_model":false,"image_url":null,"decayed_at":null,"tle_current":{"epoch":"2026-05-25T03:30:48.272256Z","epoch_age_seconds":52623,"freshness":"FRESH","line1":"1 63256U 25052AY  26145.14639204  .00000748  00000+0  77491-4 0  9993","line2":"2 63256  97.6990  36.8215 0001624  61.9116 298.2267 14.92876808 65152","mean_motion":14.92876808,"eccentricity":0.0001624,"inclination_deg":97.699,"raan_deg":36.8215,"arg_perigee_deg":61.9116,"mean_anomaly_deg":298.2267,"bstar":7.7491e-5,"rev_number":6515,"period_min":96.458059518599,"perigee_km":587.83929100594,"apogee_km":590.10220760291,"semimajor_km":6967.1077493044,"source":"CELESTRAK","updated_at":"2026-05-25T13:38:03.608669Z"}}}